West Memphis, AR

12:43 AM CST on November 23, 2017 (GMT -0600)
West Memphis Municipal

Weather History for KAWM - February, 2013

Change the Weather History Date:

Sunday, February 10, 2013

  Actual Average Record
Temperature  
Mean Temperature 55 °F -  
Max Temperature 59 °F 52 °F 68 °F (1976)
Min Temperature 51 °F 30 °F 8 °F (2011)
Degree Days  
Heating Degree Days 10    
Growing Degree Days 5 (Base 50)    
Moisture  
Dew Point 51 °F    
Average Humidity 88    
Maximum Humidity 100    
Minimum Humidity 59    
Precipitation  
Precipitation 0.94 in - - ()
Sea Level Pressure  
Sea Level Pressure 29.88 in    
Wind  
Wind Speed 13 mph (South)    
Max Wind Speed 21 mph    
Max Gust Speed 26 mph    
Visibility 8 miles    
Events Rain , Thunderstorm    
Averages and records for this station are not official NWS values.
T = Trace of Precipitation, MM = Missing Value Source: NWS Daily Summary

Daily Weather History Graph

Daily Weather History Graph

Search for Another Location

Airport or City:

Trip Planner

Search our weather history database for the weather conditions in past years. The results will help you decide how hot, cold, wet, or windy it might be!

Date:

Astronomy

Feb. 10, 2013 Rise Set
Actual Time 6:51 AM CST 5:38 PM CST
Civil Twilight 6:25 AM CST 6:05 PM CST
Nautical Twilight 5:55 AM CST 6:34 PM CST
Astronomical Twilight 5:26 AM CST 7:04 PM CST
Moon 6:44 AM CST (2/10) 6:25 PM CST (2/10)
Length of Visible Light 11h 39m
Length of Day
10h 46m
New Moon, 0% of the Moon is Illuminated
Feb 10
New Moon
Feb 17
First Quarter
Feb 25
Full
Mar 4
Last Quarter
Mar 11
New

Hourly Weather History & Observations

Time (CST) Temp. Dew Point Humidity Pressure Visibility Wind Dir Wind Speed Gust Speed Precip Events Conditions
12:53 AM 51.1 °F 37.0 °F 59% 30.01 in 10.0 mi South 17.3 mph - N/A   Mostly Cloudy
1:53 AM 52.0 °F 37.9 °F 59% 30.00 in 10.0 mi SSE 12.7 mph - N/A   Overcast
2:53 AM 52.0 °F 37.9 °F 59% 29.97 in 10.0 mi SSE 12.7 mph - N/A   Overcast
3:53 AM 53.1 °F 39.9 °F 61% 29.93 in 10.0 mi SSE 13.8 mph - N/A   Overcast
4:53 AM 53.1 °F 39.9 °F 61% 29.91 in 10.0 mi SSE 17.3 mph - N/A   Overcast
5:53 AM 54.0 °F 41.0 °F 62% 29.91 in 10.0 mi SSE 17.3 mph - N/A   Overcast
6:03 AM 53.6 °F 41.0 °F 62% 29.90 in 10.0 mi SSE 17.3 mph - N/A   Overcast
6:53 AM 54.0 °F 46.0 °F 75% 29.89 in 10.0 mi SSE 17.3 mph - N/A   Overcast
7:53 AM 53.1 °F 48.9 °F 86% 29.88 in 10.0 mi SSE 17.3 mph - 0.01 in Rain Light Rain
8:35 AM 53.6 °F 50.0 °F 88% 29.87 in 3.0 mi South 13.8 mph 25.3 mph 0.06 in Rain , Thunderstorm Thunderstorms and Rain
8:53 AM 54.0 °F 50.0 °F 86% 29.86 in 10.0 mi SSE 18.4 mph 24.2 mph 0.07 in Rain , Thunderstorm Light Rain
9:01 AM 53.6 °F 51.8 °F 94% 29.86 in 10.0 mi SSE 17.3 mph - 0.00 in Rain Light Rain
9:19 AM 53.6 °F 51.8 °F 94% 29.87 in 10.0 mi SSE 15.0 mph 23.0 mph 0.01 in Rain , Thunderstorm Light Thunderstorms and Rain
9:53 AM 53.1 °F 51.1 °F 93% 29.93 in 5.0 mi West 5.8 mph 16.1 mph 0.16 in Rain , Thunderstorm Light Thunderstorms and Rain
10:00 AM 53.6 °F 51.8 °F 94% 29.94 in 2.5 mi West 4.6 mph - 0.04 in Rain , Thunderstorm Thunderstorms and Rain
10:08 AM 53.6 °F 51.8 °F 94% 29.94 in 1.2 mi SSW 3.5 mph - 0.10 in Rain , Thunderstorm Rain
10:24 AM 51.8 °F 51.8 °F 100% 29.92 in 2.0 mi South 3.5 mph - 0.20 in Rain Rain
10:33 AM 51.8 °F 51.8 °F 100% 29.93 in 3.0 mi SSW 3.5 mph - 0.24 in Rain , Thunderstorm Thunderstorms and Rain
10:40 AM 51.8 °F 51.8 °F 100% 29.92 in 1.8 mi South 3.5 mph - 0.28 in Rain , Thunderstorm Thunderstorms and Rain
10:49 AM 51.8 °F 51.8 °F 100% 29.93 in 2.0 mi South 5.8 mph - 0.33 in Rain Rain
10:53 AM 52.0 °F 52.0 °F 100% 29.93 in 2.5 mi South 6.9 mph - 0.35 in Rain Rain
11:10 AM 51.8 °F 51.8 °F 100% 29.93 in 2.5 mi South 9.2 mph - 0.09 in Rain , Thunderstorm Rain
11:28 AM 51.8 °F 51.8 °F 100% 29.92 in 1.8 mi SSE 11.5 mph - 0.24 in Rain , Thunderstorm Rain
11:32 AM 53.6 °F 53.6 °F 100% 29.92 in 2.0 mi SSE 9.2 mph - 0.27 in Rain , Thunderstorm Rain
11:47 AM 51.8 °F 51.8 °F 100% 29.82 in 2.5 mi ESE 18.4 mph - 0.34 in Rain Rain
11:53 AM 52.0 °F 52.0 °F 100% 29.80 in 3.0 mi SE 20.7 mph - 0.34 in Rain Light Rain
12:53 PM 57.0 °F 57.0 °F 100% 29.73 in 10.0 mi SE 13.8 mph - 0.01 in   Clear
1:53 PM 57.9 °F 54.0 °F 87% 29.76 in 10.0 mi SSE 17.3 mph - N/A   Clear
2:53 PM 57.9 °F 54.0 °F 87% 29.78 in 10.0 mi South 17.3 mph - N/A   Mostly Cloudy
3:53 PM 59.0 °F 55.0 °F 87% 29.76 in 10.0 mi South 19.6 mph 26.5 mph N/A   Clear
4:16 PM 57.2 °F 55.4 °F 94% 29.77 in 10.0 mi South 18.4 mph - N/A   Mostly Cloudy
4:53 PM 59.0 °F 55.9 °F 90% 29.78 in 10.0 mi South 18.4 mph 24.2 mph N/A   Overcast
5:34 PM 59.0 °F 57.2 °F 94% 29.80 in 10.0 mi SSW 12.7 mph 19.6 mph N/A   Overcast
5:53 PM 59.0 °F 57.0 °F 93% 29.81 in 10.0 mi SSW 11.5 mph - N/A   Overcast
6:18 PM 59.0 °F 57.2 °F 94% 29.81 in 10.0 mi SSW 9.2 mph 17.3 mph N/A   Overcast
6:53 PM 59.0 °F 57.0 °F 93% 29.82 in 10.0 mi SSW 6.9 mph - N/A   Mostly Cloudy
7:32 PM 59.0 °F 55.4 °F 88% 29.84 in 10.0 mi SSW 6.9 mph 17.3 mph N/A   Partly Cloudy
7:53 PM 57.9 °F 55.9 °F 93% 29.85 in 10.0 mi SSW 6.9 mph - N/A   Clear
8:53 PM 57.9 °F 55.9 °F 93% 29.88 in 10.0 mi SW 6.9 mph - N/A   Clear
9:53 PM 57.9 °F 55.9 °F 93% 29.90 in 10.0 mi SSW 6.9 mph - N/A   Clear
10:53 PM 57.0 °F 54.0 °F 89% 29.93 in 10.0 mi SW 5.8 mph - N/A   Clear
11:53 PM 55.9 °F 53.1 °F 90% 29.96 in 10.0 mi WSW 3.5 mph - N/A   Clear